Location: Newark
(45.4422°N, 16.2769°E)
Time: 11:52:30
(UTC+00:00)

Courier 1B - Pass Details

Date: 18 December 2019
Orbit: 962 x 1209 km, 28.3° (Epoch: 17 January)

Event Time Altitude Azimuth Distance (km) Brightness Sun altitude
Rises 16:37:33 0° 213° (SSW) 3,678 11.4 -14.1°
Reaches altitude 10° 16:41:55 10° 187° (S) 2,774 10.2 -14.8°
Maximum altitude 16:44:41 13° 162° (SSE) 2,605 9.7 -15.3°
Drops below altitude 10° 16:47:30 10° 137° (SE) 2,844 9.7 -15.8°
Enters shadow 16:49:36 - 123° (ESE) 3,241 9.9 -16.1°
Sets 16:52:06 0° 111° (ESE) 3,863 - -16.5°
